Location: ??????
(37.8978°N, 24.0274°E)
Time: 01:18:54
(UTC+00:00)

Daily predictions for brighter satellites

Satellite Brightness Start Highest point End
(mag) Time Altitude Azimuth Time Altitude Azimuth Time Altitude Azimuth
Lacrosse 5 2.3 00:07:00 50° WNW 00:07:29 52° NW 00:12:29 10° NNE
Cosmos 2074 Rocket 4.1 00:05:56 10° N 00:12:14 74° E 00:14:31 42° SSE
USA 267 4.0 00:17:02 33° W 00:17:02 33° W 00:21:23 10° WNW
Meteor 2-10 Rocket 4.3 00:12:01 10° NNW 00:16:52 40° W 00:16:52 40° W
Cosmos 1269 Rocket 3.8 00:14:31 10° NNW 00:19:48 77° WSW 00:20:15 71° SSW
AQUA 3.7 00:20:47 10° NNE 00:25:34 85° ESE 00:26:04 71° S
Meteor 1-24 Rocket 3.9 00:25:27 48° W 00:26:04 51° WNW 00:31:24 10° N
COSMOS 2455 2.8 00:25:36 55° SSW 00:27:01 88° ESE 00:33:05 10° NNE
Cosmos 2184 Rocket 3.9 00:21:57 10° N 00:28:13 86° W 00:30:22 44° S
Cosmos 1455 2.6 00:30:51 10° N 00:33:50 55° NNW 00:33:50 55° NNW
CZ-2D R/B 2.6 00:34:50 10° N 00:39:55 45° WNW 00:40:53 41° W
Cosmos 2228 4.0 00:35:46 10° N 00:39:55 43° E 00:42:08 24° SE
Cosmos 1271 Rocket 3.0 00:38:31 10° N 00:42:21 64° E 00:42:59 53° SE
NOSS 3-3 (A) 3.9 00:42:45 42° S 00:44:33 64° ESE 00:50:38 10° NE
NOSS 3-3 (C) 3.9 00:42:51 41° S 00:44:39 63° ESE 00:50:44 10° NE
MSX 4.0 00:39:41 10° NNE 00:45:27 67° ESE 00:48:07 33° S
Cosmos 292 Rocket 3.8 00:46:58 54° WSW 00:47:49 66° WNW 00:52:36 10° NNE
Cosmos 1536 Rocket 3.7 00:48:06 54° W 00:48:24 55° W 00:52:44 10° N
CRYOSAT 2 4.3 00:48:17 52° SW 00:49:12 64° W 00:54:03 10° NNW
Cosmos 1943 3.4 00:54:21 34° S 00:56:52 67° ESE 01:02:31 10° NNE
Nadezhda 1 Rocket 4.1 00:55:14 37° SW 00:57:44 61° W 01:03:58 10° N
Resurs 1-4 Rocket 3.4 01:01:19 10° NNW 01:05:34 26° WNW 01:07:01 23° W
OAO 2 Rocket 3.7 01:07:13 37° SSW 01:08:15 43° SSE 01:12:56 10° E
Cosmos 1328 4.0 01:09:04 34° SSE 01:10:40 68° E 01:14:36 10° NNE
Helios 1B rocket 3.4 01:09:43 10° NNE 01:13:36 43° E 01:16:11 19° SSE
ARIANE 5 R/B 4.5 01:10:42 10° NE 01:14:44 24° E 01:18:43 10° SSE
Cosmos 1606 Rocket 3.7 01:11:10 10° N 01:15:34 73° E 01:18:57 16° SSE
Lacrosse 5 rocket 3.4 01:14:37 13° WNW 01:16:34 18° NNW 01:19:23 10° NNE
GPS 2-04 Rocket1 3.1 01:16:42 35° SSE 01:16:42 35° SSE 01:19:52 10° E
Cosmos 1943 Rocket 2.9 01:12:59 10° NW 01:18:00 33° WSW 01:19:23 29° SW
CBERS-1 4.3 01:13:08 10° NNE 01:18:14 65° ESE 01:21:53 19° S
IDEFIX/ARIANE 42P 3.1 01:13:51 10° N 01:18:51 45° WNW 01:21:05 29° SW
ADEOS II 2.9 01:14:51 10° N 01:19:37 36° WNW 01:21:40 26° WSW
Cosmos 2056 Rocket 4.1 01:17:44 18° S 01:21:25 52° ESE 01:26:30 10° NNE
Cosmos 614 Rocket 4.3 01:18:00 10° NNW 01:22:57 45° WSW 01:25:35 25° SSW
Cosmos 2297 4.2 01:18:34 10° NW 01:23:52 39° WSW 01:26:43 24° SSW
Cosmos 2263 4.5 01:18:49 10° NNW 01:24:30 71° ENE 01:30:12 10° SSE
Cosmos 1703 4.3 01:24:41 28° W 01:25:19 29° WNW 01:28:47 10° NNW
Helios 1A 3.5 01:25:17 33° SW 01:26:21 39° W 01:30:19 10° NNW
Cosmos 2366 rocket 4.4 01:23:06 10° N 01:29:14 65° E 01:35:22 10° SSE
IRS-1D 3.7 01:26:06 10° N 01:31:20 59° WNW 01:34:29 23° SW
Cosmos 2341 Rocket 4.0 01:26:16 10° N 01:32:40 81° W 01:39:03 10° S
MOS 1 Rocket 4.4 01:33:15 21° W 01:33:25 21° W 01:36:42 10° NW
Lacrosse 4 Rocket 3.0 01:30:18 11° SSE 01:33:49 30° ESE 01:37:32 10° NE
Cosmos 2251 Rocket 3.5 01:28:49 10° NNW 01:34:01 62° WSW 01:39:14 10° S
SL-8 Rocket 4.0 01:29:33 10° N 01:35:55 89° E 01:42:14 10° S
ALOS 3.0 01:33:40 10° NNE 01:38:12 50° E 01:42:43 10° S
MOS 1-B Rocket 3.9 01:36:14 10° SSE 01:41:52 84° ENE 01:47:35 10° NNW
Cosmos 1892 2.9 01:43:28 13° S 01:46:51 69° E 01:50:36 10° NNE
Cosmos 2369 Rocket 2.3 01:41:51 10° NNW 01:47:16 52° WSW 01:52:40 10° S
SL-16 R/B 4.3 01:45:11 10° WNW 01:47:42 13° NW 01:50:15 10° NNW
SL-16 R/B 3.8 01:45:54 17° WSW 01:47:42 20° W 01:52:05 10° NW
Cosmos 1408 2.5 01:45:04 16° S 01:47:55 86° E 01:51:34 10° N
Cosmos 1892 Rocket 3.7 01:45:08 20° SSW 01:48:05 56° W 01:52:30 10° N
Cosmos 1656 Rocket 3.6 01:45:21 10° NNW 01:50:41 62° WSW 01:56:02 10° S
Lacrosse 5 4.3 01:48:52 10° NW 01:51:32 14° NNW 01:54:13 10° N
PAYLOAD A 4.1 01:47:09 10° NNE 01:51:54 69° ESE 01:56:46 10° S
CZ-2C R/B 2.7 01:47:44 10° NNE 01:52:49 72° ESE 01:57:43 10° S
FALCON 9 R/B 4.5 01:35:27 10° WNW 01:53:19 30° SW 01:59:44 10° S
Cosmos 1726 Rocket 3.8 01:50:27 10° NNW 01:54:43 51° W 01:58:55 10° SSW
In-Cosmos 22 Rocket 4.5 01:54:51 10° S 02:00:37 76° E 02:06:27 10° NNE
ATLAS 3B CENTAUR R/B 3.9 02:02:49 10° SSE 02:03:31 10° SE 02:04:15 10° SE
Cosmos 1420 Rocket 4.0 02:03:00 11° SSW 02:07:52 72° WNW 02:13:04 10° NNE
Nadezhda 3 Rocket 4.3 02:10:51 10° S 02:17:09 76° E 02:23:24 10° N
SL-08 R/B 4.1 02:13:22 10° SSE 02:17:52 56° ENE 02:22:24 10° N
Cosmos 407 Rocket 3.9 02:12:54 10° NNW 02:17:54 43° WSW 02:22:49 10° S
Cosmos 2218 Rocket 4.3 02:13:39 10° NNW 02:19:37 49° W 02:25:38 10° SSW
Meteor 1-29 2.9 02:21:46 10° N 02:24:59 61° WNW 02:28:12 10° SSW
DELTA 2 DEB (DPAF) 4.1 02:21:32 10° S 02:25:55 69° WSW 02:30:20 10° NNW
Cosmos 1140 Rocket 4.2 02:21:21 10° NW 02:26:02 34° W 02:30:42 10° SSW
Cosmos 1452 Rocket 4.0 02:20:59 10° S 02:26:11 65° ESE 02:31:25 10° NNE
SeaSat 1 2.5 02:22:30 10° NNE 02:27:28 86° ESE 02:32:23 10° SSW
CZ-3 R/B 4.1 01:44:51 10° W 02:28:48 62° SSW 02:39:07 10° ESE
Cosmos 2058 Rocket 3.8 02:28:18 10° NNW 02:32:14 33° W 02:36:07 10° SSW
Cosmos 1626 Rocket 3.7 02:28:10 10° SSW 02:32:30 55° W 02:36:48 10° N
METEOR-M 4.2 02:30:54 10° N 02:36:14 72° WNW 02:41:32 10° SSW
Cosmos 1869 3.2 02:34:08 10° NNW 02:38:02 72° W 02:41:52 10° S
Cosmos 1821 Rocket 4.1 02:32:24 10° N 02:38:48 75° W 02:45:08 10° S
CZ-4C R/B 3.4 02:35:51 10° SSE 02:39:26 75° ENE 02:43:14 10° N
Envisat 4.1 02:34:41 10° NNE 02:39:36 47° E 02:44:28 10° S
Cosmos 1954 Rocket 4.1 02:36:49 10° NNW 02:42:05 63° WSW 02:47:19 10° S
ATLAS 2A CENTAUR R/B 3.8 02:39:11 10° WSW 02:51:54 38° SSW 02:57:12 10° SE
